Weather History for Cherry Point, NC

Change the Weather History Date:

Sunday, December 29, 2013

  Actual Average Record
Temperature  
Mean Temperature 60 °F -  
Max Temperature 69 °F 53 °F 75 °F (1996)
Min Temperature 50 °F 33 °F 24 °F (2010)
Degree Days  
Heating Degree Days 6    
Growing Degree Days 10 (Base 50)    
Moisture  
Dew Point 58 °F    
Average Humidity 84    
Maximum Humidity 94    
Minimum Humidity 73    
Precipitation  
Precipitation 0.15 in - - ()
Sea Level Pressure  
Sea Level Pressure 29.85 in    
Wind  
Wind Speed 13 mph (SSW)    
Max Wind Speed 23 mph    
Max Gust Speed 37 mph    
Visibility 8 miles    
Events Rain    
Averages and records for this station are not official NWS values.
T = Trace of Precipitation, MM = Missing Value Source: NWS Daily Summary

Daily Weather History Graph

Daily Weather History Graph

Search for Another Location

Airport:

Trip Planner

Search our weather history database for the weather conditions in past years. The results will help you decide how hot, cold, wet, or windy it might be!

Date:

Astronomy

Dec. 29, 2013 Rise Set
Actual Time 7:14 AM EST 5:04 PM EST
Civil Twilight 6:46 AM EST 5:33 PM EST
Nautical Twilight 6:14 AM EST 6:04 PM EST
Astronomical Twilight 5:44 AM EST 6:35 PM EST
Moon 3:59 AM EST (12/29) 2:38 PM EST (12/29)
Length of Visible Light 10h 46m
Length of Day
9h 50m
Waning Crescent, 11% of the Moon is Illuminated
Dec 29
Waning Crescent
Jan 1
New
Jan 7
First Quarter
Jan 15
Full
Jan 24
Last Quarter

Hourly Weather History & Observations

Time (EST) Temp. Dew Point Humidity Pressure Visibility Wind Dir Wind Speed Gust Speed Precip Events Conditions
12:54 AM 50.0 °F 42.1 °F 74% 30.13 in 10.0 mi East 4.6 mph - N/A   Overcast
1:54 AM 53.1 °F 46.0 °F 77% 30.12 in 10.0 mi SE 6.9 mph - N/A   Overcast
2:54 AM 55.0 °F 48.9 °F 80% 30.08 in 10.0 mi SE 6.9 mph - N/A   Overcast
3:54 AM 60.1 °F 53.1 °F 78% 30.03 in 10.0 mi ESE 9.2 mph - N/A   Overcast
4:54 AM 64.0 °F 55.0 °F 73% 30.00 in 10.0 mi SSE 13.8 mph - 0.00 in Rain Light Rain
5:54 AM 64.9 °F 55.9 °F 73% 29.96 in 10.0 mi SSE 17.3 mph 31.1 mph 0.00 in   Overcast
6:54 AM 66.9 °F 57.9 °F 73% 29.95 in 10.0 mi SSE 17.3 mph 31.1 mph N/A   Overcast
7:54 AM 66.9 °F 60.1 °F 79% 29.93 in 10.0 mi SSE 15.0 mph 23.0 mph N/A   Mostly Cloudy
8:45 AM 68.0 °F 61.0 °F 78% 29.93 in 8.0 mi South 17.3 mph 27.6 mph 0.00 in Rain Light Rain
8:54 AM 68.0 °F 61.0 °F 78% 29.91 in 8.0 mi South 17.3 mph 27.6 mph 0.00 in Rain Light Rain
9:54 AM 69.1 °F 62.1 °F 78% 29.89 in 8.0 mi South 17.3 mph 29.9 mph 0.01 in Rain Light Rain
10:54 AM 69.1 °F 61.0 °F 75% 29.85 in 9.0 mi South 23.0 mph 33.4 mph 0.00 in   Overcast
11:54 AM 66.9 °F 62.1 °F 84% 29.81 in 2.0 mi South 18.4 mph 36.8 mph 0.07 in Rain Rain
12:04 PM 66.9 °F 62.1 °F 84% 29.79 in 4.0 mi South 18.4 mph 32.2 mph 0.02 in Rain Rain
12:32 PM 66.9 °F 63.0 °F 87% 29.78 in 4.0 mi South 23.0 mph 34.5 mph 0.06 in Rain Rain
12:46 PM 66.9 °F 64.0 °F 90% 29.78 in 5.0 mi South 19.6 mph 33.4 mph 0.07 in Rain Light Rain
12:54 PM 66.9 °F 64.0 °F 90% 29.76 in 6.0 mi North - - 0.07 in   Overcast
1:34 PM 68.0 °F 64.9 °F 90% 29.76 in 5.0 mi SSW 18.4 mph 27.6 mph N/A   Overcast
1:54 PM 69.1 °F 64.0 °F 84% 29.74 in 6.0 mi SW 19.6 mph 36.8 mph N/A   Haze
2:54 PM 66.9 °F 62.1 °F 84% 29.73 in 8.0 mi SW 17.3 mph 35.7 mph N/A   Mostly Cloudy
3:10 PM 66.9 °F 62.1 °F 84% 29.73 in 8.0 mi SSW 16.1 mph 27.6 mph N/A   Scattered Clouds
3:54 PM 66.0 °F 62.1 °F 87% 29.74 in 7.0 mi SSW 19.6 mph 31.1 mph N/A   Mostly Cloudy
4:13 PM 66.0 °F 62.1 °F 87% 29.75 in 7.0 mi SSW 12.7 mph - N/A   Overcast
4:52 PM 64.4 °F 62.6 °F 94% 29.76 in 7.0 mi SSW 12.7 mph - N/A   Mostly Cloudy
4:54 PM 64.9 °F 62.1 °F 90% 29.75 in 7.0 mi SSW 12.7 mph - N/A   Mostly Cloudy
5:16 PM 64.9 °F 61.0 °F 87% 29.77 in 7.0 mi SSW 12.7 mph 19.6 mph N/A   Mostly Cloudy
5:23 PM 64.9 °F 61.0 °F 87% 29.76 in 8.0 mi SW 12.7 mph 20.7 mph N/A   Mostly Cloudy
5:50 PM 64.4 °F 60.8 °F 88% 29.77 in 7.0 mi SW 17.3 mph - N/A   Mostly Cloudy
5:54 PM 64.0 °F 60.1 °F 87% 29.77 in 7.0 mi SW 16.1 mph - N/A   Mostly Cloudy
6:09 PM 63.0 °F 60.1 °F 90% 29.78 in 7.0 mi SW 12.7 mph - N/A   Mostly Cloudy
6:21 PM 63.0 °F 60.1 °F 90% 29.78 in 7.0 mi SW 10.4 mph - N/A   Overcast
6:54 PM 63.0 °F 61.0 °F 93% 29.80 in 7.0 mi WSW 9.2 mph - N/A   Overcast
7:54 PM 62.1 °F 55.0 °F 78% 29.84 in 10.0 mi WNW 15.0 mph 24.2 mph N/A   Partly Cloudy
8:54 PM 57.9 °F 53.1 °F 84% 29.88 in 10.0 mi WNW 9.2 mph - N/A   Clear
9:54 PM 55.9 °F 50.0 °F 80% 29.91 in 10.0 mi West 8.1 mph - N/A   Clear
10:54 PM 54.0 °F 50.0 °F 86% 29.93 in 10.0 mi West 8.1 mph - N/A   Clear
11:54 PM 52.0 °F 48.9 °F 89% 29.94 in 10.0 mi WNW 5.8 mph - N/A   Clear